QPF
0.02 0.02 0.03 0.04 0.05 0.03 0.03 0.04 0.04 0.05 0.05 0.05 0.05 0.05 0.06 0.05 0.04 0.03 0.02 0.03 0.02 0.02 0.02 0.02 0.01 0.00 0.00 0.00 0.00 0.00 0.00 0.00 0.00 0.01 0.01 0.00 0.00 0.00 0.00 0.00 0.00 0.00 0.00
0.02 0.02 0.03 0.06 0.06 0.06 0.04 0.03 0.03 0.04 0.05 0.05 0.05 0.07 0.07 0.06 0.06 0.03 0.02 0.02 0.02 0.01 0.02 0.02 0.02 0.01 0.00 0.00 0.00 0.00 0.01 0.00 0.00 0.00 0.01 0.01 0.01 0.00 0.00 0.00 0.00 0.00 0.00
0.02 0.02 0.03 0.04 0.04 0.04 0.04 0.05 0.03 0.03 0.05 0.05 0.06 0.06 0.07 0.08 0.07 0.03 0.02 0.01 0.01 0.02 0.03 0.02 0.02 0.02 0.02 0.01 0.01 0.01 0.02 0.01 0.00 0.00 0.00 0.00 0.00 0.00 0.00 0.00 0.00 0.00 0.00
0.02 0.02 0.02 0.03 0.04 0.04 0.04 0.05 0.04 0.04 0.05 0.04 0.06 0.07 0.07 0.08 0.06 0.03 0.02 0.02 0.02 0.01 0.02 0.03 0.03 0.03 0.02 0.02 0.01 0.02 0.03 0.02 0.01 0.01 0.01 0.01 0.01 0.01 0.00 0.00 0.00 0.00 0.00
0.01 0.02 0.02 0.02 0.03 0.04 0.05 0.03 0.03 0.03 0.04 0.04 0.05 0.06 0.06 0.06 0.06 0.04 0.03 0.02 0.02 0.01 0.01 0.02 0.03 0.03 0.03 0.03 0.02 0.03 0.03 0.02 0.02 0.01 0.01 0.01 0.01 0.01 0.00 0.00 0.00 0.00 0.00
0.02 0.02 0.02 0.02 0.03 0.03 0.05 0.05 0.04 0.04 0.04 0.03 0.07 0.09 0.06 0.05 0.04 0.04 0.03 0.03 0.03 0.02 0.02 0.01 0.01 0.02 0.03 0.03 0.03 0.04 0.04 0.03 0.02 0.01 0.01 0.01 0.01 0.01 0.01 0.01 0.00 0.00 0.00
0.04 0.02 0.02 0.02 0.02 0.03 0.03 0.04 0.04 0.04 0.03 0.03 0.08 0.11 0.09 0.07 0.05 0.04 0.03 0.04 0.03 0.03 0.03 0.02 0.02 0.01 0.01 0.02 0.02 0.03 0.04 0.03 0.03 0.02 0.01 0.01 0.01 0.01 0.01 0.01 0.01 0.00 0.00
0.05 0.04 0.03 0.02 0.02 0.03 0.04 0.04 0.03 0.03 0.02 0.03 0.05 0.07 0.08 0.05 0.05 0.03 0.03 0.03 0.04 0.04 0.04 0.04 0.02 0.02 0.01 0.01 0.01 0.02 0.03 0.03 0.04 0.04 0.03 0.02 0.01 0.01 0.01 0.01 0.01 0.01 0.01
0.05 0.05 0.04 0.03 0.02 0.02 0.03 0.03 0.02 0.01 0.01 0.01 0.02 0.03 0.04 0.04 0.02 0.03 0.04 0.06 0.08 0.06 0.06 0.04 0.02 0.02 0.02 0.01 0.01 0.01 0.01 0.02 0.03 0.04 0.04 0.03 0.02 0.01 0.01 0.01 0.01 0.01 0.01
0.04 0.05 0.05 0.04 0.04 0.03 0.03 0.02 0.02 0.01 0.01 0.01 0.02 0.02 0.02 0.02 0.02 0.02 0.03 0.05 0.08 0.08 0.07 0.04 0.03 0.02 0.02 0.02 0.01 0.01 0.01 0.01 0.02 0.03 0.04 0.04 0.03 0.02 0.02 0.02 0.02 0.02 0.02
0.05 0.07 0.07 0.06 0.05 0.04 0.03 0.02 0.02 0.01 0.01 0.01 0.01 0.02 0.02 0.02 0.02 0.01 0.02 0.03 0.04 0.03 0.03 0.02 0.03 0.02 0.03 0.03 0.01 0.01 0.01 0.01 0.01 0.02 0.03 0.03 0.04 0.04 0.03 0.03 0.02 0.03 0.02
0.09 0.09 0.08 0.07 0.06 0.05 0.04 0.03 0.03 0.02 0.01 0.01 0.01 0.02 0.02 0.01 0.02 0.02 0.02 0.02 0.01 0.01 0.02 0.03 0.02 0.01 0.01 0.02 0.01 0.01 0.01 0.01 0.02 0.01 0.01 0.02 0.03 0.04 0.04 0.04 0.05 0.05 0.05
0.10 0.10 0.09 0.09 0.07 0.06 0.05 0.05 0.04 0.03 0.02 0.02 0.03 0.02 0.02 0.01 0.02 0.04 0.05 0.04 0.03 0.01 0.01 0.01 0.02 0.02 0.03 0.03 0.02 0.01 0.01 0.02 0.02 0.01 0.01 0.01 0.01 0.02 0.02 0.03 0.04 0.05 0.05
0.11 0.13 0.13 0.11 0.09 0.07 0.06 0.06 0.05 0.03 0.02 0.02 0.03 0.03 0.02 0.02 0.03 0.04 0.06 0.06 0.03 0.02 0.02 0.02 0.02 0.03 0.03 0.04 0.04 0.04 0.03 0.03 0.03 0.02 0.01 0.01 0.00 0.01 0.01 0.01 0.02 0.02 0.02
0.12 0.16 0.16 0.13 0.11 0.08 0.08 0.09 0.08 0.07 0.06 0.05 0.04 0.04 0.02 0.02 0.03 0.03 0.05 0.08 0.07 0.03 0.02 0.02 0.03 0.03 0.04 0.05 0.08 0.08 0.06 0.06 0.05 0.03 0.02 0.02 0.01 0.01 0.01 0.01 0.01 0.01 0.01
0.10 0.11 0.13 0.12 0.12 0.12 0.12 0.14 0.11 0.09 0.09 0.07 0.07 0.07 0.04 0.03 0.04 0.03 0.04 0.07 0.08 0.05 0.03 0.03 0.02 0.02 0.04 0.05 0.07 0.08 0.07 0.08 0.09 0.07 0.05 0.04 0.02 0.01 0.01 0.01 0.00 0.00 0.01
0.10 0.11 0.12 0.14 0.13 0.14 0.14 0.14 0.13 0.11 0.10 0.09 0.08 0.07 0.04 0.03 0.04 0.04 0.05 0.06 0.07 0.06 0.04 0.03 0.03 0.03 0.04 0.05 0.06 0.05 0.05 0.07 0.11 0.13 0.10 0.06 0.04 0.03 0.02 0.02 0.01 0.01 0.00
0.11 0.12 0.14 0.15 0.14 0.12 0.11 0.10 0.11 0.12 0.12 0.10 0.10 0.10 0.07 0.07 0.07 0.06 0.07 0.07 0.06 0.06 0.06 0.06 0.05 0.04 0.04 0.05 0.05 0.05 0.05 0.05 0.07 0.08 0.08 0.08 0.06 0.05 0.04 0.03 0.02 0.02 0.01
0.12 0.14 0.16 0.18 0.16 0.15 0.15 0.15 0.15 0.15 0.15 0.14 0.13 0.12 0.11 0.10 0.08 0.06 0.07 0.08 0.08 0.08 0.08 0.06 0.05 0.04 0.03 0.03 0.04 0.05 0.05 0.05 0.05 0.06 0.07 0.06 0.07 0.07 0.06 0.05 0.04 0.02 0.02
0.10 0.13 0.14 0.16 0.17 0.16 0.17 0.16 0.14 0.14 0.15 0.16 0.16 0.14 0.12 0.10 0.08 0.08 0.08 0.07 0.08 0.09 0.08 0.07 0.07 0.05 0.05 0.04 0.03 0.03 0.03 0.03 0.03 0.04 0.05 0.05 0.05 0.05 0.05 0.04 0.04 0.03 0.02
0.10 0.12 0.12 0.17 0.22 0.23 0.20 0.18 0.15 0.14 0.16 0.19 0.19 0.17 0.14 0.14 0.14 0.14 0.13 0.10 0.09 0.09 0.08 0.07 0.06 0.06 0.05 0.05 0.04 0.04 0.03 0.03 0.03 0.04 0.04 0.04 0.04 0.03 0.03 0.03 0.03 0.03 0.03
0.09 0.08 0.09 0.15 0.18 0.19 0.19 0.17 0.15 0.15 0.15 0.16 0.18 0.17 0.15 0.14 0.12 0.12 0.12 0.12 0.11 0.08 0.06 0.05 0.05 0.05 0.06 0.06 0.07 0.06 0.06 0.06 0.06 0.06 0.06 0.06 0.06 0.05 0.03 0.03 0.03 0.05 0.05
0.08 0.08 0.07 0.10 0.14 0.14 0.15 0.15 0.15 0.15 0.16 0.16 0.15 0.13 0.11 0.09 0.08 0.07 0.08 0.09 0.10 0.11 0.09 0.08 0.08 0.08 0.07 0.07 0.07 0.08 0.08 0.09 0.08 0.07 0.06 0.05 0.05 0.04 0.02 0.02 0.03 0.03 0.04
0.08 0.08 0.08 0.09 0.10 0.12 0.13 0.12 0.13 0.12 0.12 0.12 0.10 0.09 0.07 0.06 0.07 0.08 0.08 0.11 0.16 0.19 0.20 0.19 0.17 0.13 0.10 0.08 0.07 0.06 0.06 0.06 0.04 0.04 0.03 0.04 0.04 0.04 0.03 0.03 0.02 0.01 0.02
0.07 0.07 0.08 0.09 0.09 0.11 0.14 0.12 0.10 0.09 0.09 0.09 0.09 0.08 0.06 0.05 0.06 0.06 0.06 0.08 0.09 0.11 0.13 0.13 0.12 0.10 0.08 0.08 0.06 0.05 0.05 0.05 0.04 0.04 0.03 0.03 0.03 0.03 0.03 0.02 0.02 0.02 0.01
0.08 0.07 0.07 0.07 0.07 0.08 0.11 0.12 0.11 0.09 0.08 0.07 0.05 0.05 0.06 0.07 0.07 0.06 0.05 0.05 0.05 0.05 0.05 0.05 0.06 0.07 0.06 0.06 0.05 0.04 0.03 0.04 0.04 0.04 0.03 0.02 0.02 0.02 0.02 0.02 0.02 0.01 0.01
MSLP
1017.72 1017.83 1017.87 1017.89 1017.92 1017.99 1018.11 1018.29 1018.49 1018.72 1018.92 1019.11 1019.27 1019.41 1019.55 1019.68 1019.84 1020.01 1020.19 1020.37 1020.55 1020.72 1020.87 1021.02 1021.14 1021.27 1021.38 1021.50 1021.61 1021.72 1021.84 1021.95 1022.07 1022.21 1022.37 1022.55 1022.74 1022.94 1023.13 1023.30 1023.43 1023.53 1023.59
1017.57 1017.70 1017.77 1017.81 1017.87 1017.97 1018.12 1018.32 1018.55 1018.81 1019.06 1019.30 1019.51 1019.69 1019.84 1019.98 1020.11 1020.24 1020.36 1020.49 1020.62 1020.76 1020.90 1021.05 1021.21 1021.38 1021.53 1021.67 1021.78 1021.89 1021.97 1022.05 1022.15 1022.26 1022.41 1022.60 1022.82 1023.04 1023.26 1023.45 1023.59 1023.69 1023.75
1017.30 1017.46 1017.58 1017.68 1017.80 1017.95 1018.15 1018.39 1018.66 1018.96 1019.26 1019.53 1019.78 1020.00 1020.17 1020.30 1020.40 1020.46 1020.52 1020.57 1020.63 1020.71 1020.83 1020.98 1021.16 1021.36 1021.55 1021.72 1021.86 1021.96 1022.03 1022.09 1022.16 1022.26 1022.40 1022.58 1022.81 1023.05 1023.29 1023.50 1023.66 1023.77 1023.84
1016.97 1017.17 1017.35 1017.53 1017.73 1017.96 1018.22 1018.51 1018.83 1019.16 1019.49 1019.80 1020.08 1020.32 1020.49 1020.61 1020.67 1020.68 1020.65 1020.62 1020.60 1020.61 1020.69 1020.82 1021.00 1021.22 1021.45 1021.65 1021.82 1021.94 1022.02 1022.07 1022.12 1022.20 1022.32 1022.50 1022.72 1022.97 1023.22 1023.44 1023.62 1023.75 1023.83
1016.62 1016.86 1017.11 1017.39 1017.68 1017.99 1018.32 1018.66 1019.02 1019.37 1019.72 1020.05 1020.35 1020.60 1020.78 1020.89 1020.92 1020.88 1020.78 1020.66 1020.56 1020.50 1020.51 1020.61 1020.78 1021.00 1021.24 1021.48 1021.68 1021.82 1021.91 1021.97 1022.02 1022.08 1022.19 1022.35 1022.57 1022.81 1023.06 1023.29 1023.48 1023.62 1023.71
1016.28 1016.56 1016.89 1017.25 1017.64 1018.03 1018.42 1018.80 1019.17 1019.54 1019.89 1020.22 1020.53 1020.79 1020.99 1021.10 1021.12 1021.04 1020.90 1020.72 1020.54 1020.41 1020.35 1020.40 1020.53 1020.74 1020.99 1021.24 1021.46 1021.63 1021.74 1021.81 1021.87 1021.93 1022.03 1022.18 1022.38 1022.61 1022.85 1023.08 1023.27 1023.41 1023.51
1015.97 1016.29 1016.69 1017.13 1017.59 1018.04 1018.48 1018.88 1019.25 1019.61 1019.95 1020.28 1020.59 1020.87 1021.09 1021.22 1021.25 1021.18 1021.02 1020.80 1020.57 1020.38 1020.25 1020.23 1020.31 1020.48 1020.71 1020.96 1021.18 1021.38 1021.52 1021.61 1021.68 1021.76 1021.85 1021.99 1022.17 1022.39 1022.61 1022.83 1023.01 1023.15 1023.26
1015.72 1016.07 1016.51 1017.00 1017.51 1018.01 1018.46 1018.86 1019.22 1019.54 1019.86 1020.18 1020.49 1020.79 1021.05 1021.23 1021.31 1021.27 1021.13 1020.91 1020.65 1020.41 1020.22 1020.12 1020.14 1020.25 1020.43 1020.65 1020.88 1021.08 1021.24 1021.36 1021.46 1021.55 1021.67 1021.81 1021.98 1022.18 1022.38 1022.57 1022.74 1022.87 1022.97
1015.51 1015.87 1016.34 1016.86 1017.39 1017.90 1018.34 1018.72 1019.04 1019.34 1019.62 1019.92 1020.24 1020.57 1020.87 1021.11 1021.27 1021.29 1021.20 1021.01 1020.75 1020.48 1020.24 1020.08 1020.01 1020.04 1020.16 1020.34 1020.53 1020.73 1020.91 1021.06 1021.19 1021.32 1021.46 1021.62 1021.79 1021.97 1022.16 1022.33 1022.47 1022.59 1022.68
1015.33 1015.70 1016.17 1016.69 1017.22 1017.71 1018.12 1018.47 1018.75 1019.01 1019.26 1019.54 1019.87 1020.23 1020.58 1020.90 1021.12 1021.23 1021.21 1021.07 1020.83 1020.55 1020.28 1020.05 1019.90 1019.85 1019.89 1019.99 1020.15 1020.33 1020.51 1020.69 1020.86 1021.04 1021.22 1021.40 1021.59 1021.77 1021.94 1022.09 1022.21 1022.30 1022.38
1015.18 1015.53 1015.99 1016.49 1016.99 1017.45 1017.83 1018.14 1018.38 1018.59 1018.82 1019.09 1019.42 1019.80 1020.20 1020.58 1020.88 1021.07 1021.12 1021.04 1020.84 1020.57 1020.27 1019.99 1019.77 1019.64 1019.59 1019.63 1019.73 1019.88 1020.06 1020.26 1020.47 1020.68 1020.91 1021.13 1021.34 1021.53 1021.70 1021.84 1021.94 1022.01 1022.07
1015.03 1015.37 1015.79 1016.25 1016.72 1017.13 1017.48 1017.75 1017.96 1018.16 1018.36 1018.63 1018.96 1019.35 1019.78 1020.19 1020.55 1020.80 1020.92 1020.89 1020.74 1020.48 1020.18 1019.87 1019.60 1019.39 1019.27 1019.23 1019.28 1019.39 1019.55 1019.76 1020.00 1020.26 1020.53 1020.79 1021.04 1021.25 1021.42 1021.56 1021.65 1021.71 1021.76
1014.87 1015.18 1015.56 1015.98 1016.40 1016.78 1017.10 1017.35 1017.55 1017.73 1017.93 1018.18 1018.51 1018.90 1019.33 1019.76 1020.15 1020.44 1020.60 1020.62 1020.51 1020.29 1020.00 1019.68 1019.38 1019.12 1018.94 1018.84 1018.82 1018.89 1019.03 1019.24 1019.50 1019.79 1020.09 1020.39 1020.67 1020.91 1021.10 1021.24 1021.33 1021.39 1021.43
1014.68 1014.97 1015.30 1015.68 1016.06 1016.41 1016.71 1016.96 1017.16 1017.35 1017.55 1017.80 1018.11 1018.49 1018.90 1019.32 1019.70 1019.99 1020.18 1020.24 1020.17 1019.99 1019.73 1019.43 1019.12 1018.85 1018.63 1018.48 1018.42 1018.44 1018.55 1018.74 1018.99 1019.29 1019.62 1019.95 1020.26 1020.53 1020.75 1020.90 1021.01 1021.08 1021.13
1014.48 1014.72 1015.02 1015.36 1015.71 1016.04 1016.34 1016.59 1016.82 1017.02 1017.24 1017.49 1017.79 1018.13 1018.51 1018.88 1019.23 1019.51 1019.70 1019.78 1019.75 1019.62 1019.42 1019.16 1018.88 1018.61 1018.38 1018.21 1018.10 1018.09 1018.16 1018.31 1018.55 1018.84 1019.18 1019.53 1019.86 1020.15 1020.40 1020.58 1020.71 1020.80 1020.88
1014.25 1014.47 1014.73 1015.03 1015.36 1015.68 1015.99 1016.27 1016.52 1016.76 1017.00 1017.25 1017.53 1017.83 1018.16 1018.47 1018.77 1019.02 1019.20 1019.30 1019.31 1019.24 1019.10 1018.91 1018.69 1018.45 1018.23 1018.05 1017.92 1017.86 1017.89 1018.01 1018.21 1018.48 1018.80 1019.16 1019.50 1019.82 1020.09 1020.30 1020.47 1020.60 1020.71
1014.03 1014.22 1014.46 1014.74 1015.05 1015.37 1015.69 1016.00 1016.28 1016.55 1016.81 1017.07 1017.33 1017.59 1017.85 1018.11 1018.35 1018.56 1018.73 1018.84 1018.89 1018.89 1018.83 1018.71 1018.56 1018.39 1018.20 1018.03 1017.89 1017.80 1017.78 1017.85 1018.02 1018.26 1018.56 1018.90 1019.25 1019.58 1019.88 1020.13 1020.33 1020.50 1020.65
1013.83 1014.01 1014.23 1014.49 1014.79 1015.12 1015.46 1015.79 1016.10 1016.40 1016.67 1016.92 1017.16 1017.39 1017.60 1017.80 1017.99 1018.16 1018.32 1018.44 1018.53 1018.59 1018.61 1018.58 1018.51 1018.40 1018.26 1018.11 1017.97 1017.87 1017.82 1017.85 1017.97 1018.18 1018.45 1018.78 1019.13 1019.48 1019.80 1020.08 1020.31 1020.52 1020.70
1013.67 1013.85 1014.07 1014.33 1014.63 1014.96 1015.30 1015.65 1015.98 1016.29 1016.57 1016.82 1017.03 1017.22 1017.40 1017.55 1017.70 1017.84 1017.98 1018.12 1018.25 1018.36 1018.45 1018.51 1018.51 1018.47 1018.38 1018.27 1018.14 1018.03 1017.97 1017.97 1018.06 1018.24 1018.50 1018.81 1019.16 1019.52 1019.85 1020.15 1020.41 1020.64 1020.84
1013.56 1013.76 1013.99 1014.26 1014.56 1014.89 1015.24 1015.59 1015.92 1016.23 1016.51 1016.74 1016.94 1017.10 1017.24 1017.36 1017.48 1017.60 1017.74 1017.89 1018.05 1018.21 1018.36 1018.48 1018.55 1018.57 1018.53 1018.45 1018.35 1018.25 1018.19 1018.18 1018.26 1018.42 1018.67 1018.98 1019.33 1019.69 1020.03 1020.34 1020.61 1020.84 1021.03
1013.49 1013.72 1013.98 1014.26 1014.58 1014.92 1015.27 1015.61 1015.93 1016.23 1016.49 1016.71 1016.89 1017.03 1017.15 1017.25 1017.35 1017.47 1017.61 1017.77 1017.95 1018.15 1018.33 1018.49 1018.61 1018.67 1018.67 1018.63 1018.56 1018.49 1018.44 1018.45 1018.53 1018.70 1018.95 1019.26 1019.61 1019.97 1020.31 1020.62 1020.87 1021.08 1021.25
1013.46 1013.73 1014.02 1014.34 1014.68 1015.03 1015.38 1015.71 1016.02 1016.30 1016.54 1016.74 1016.91 1017.04 1017.15 1017.25 1017.35 1017.46 1017.60 1017.78 1017.97 1018.17 1018.38 1018.55 1018.70 1018.78 1018.82 1018.81 1018.78 1018.73 1018.72 1018.76 1018.87 1019.05 1019.32 1019.64 1019.99 1020.34 1020.67 1020.96 1021.18 1021.35 1021.47
1013.44 1013.76 1014.11 1014.47 1014.85 1015.21 1015.56 1015.89 1016.19 1016.45 1016.68 1016.87 1017.03 1017.16 1017.27 1017.38 1017.48 1017.61 1017.76 1017.93 1018.12 1018.32 1018.52 1018.70 1018.85 1018.95 1019.00 1019.02 1019.01 1019.01 1019.03 1019.11 1019.25 1019.47 1019.75 1020.08 1020.43 1020.77 1021.08 1021.32 1021.50 1021.61 1021.67
1013.45 1013.82 1014.22 1014.64 1015.05 1015.45 1015.82 1016.15 1016.44 1016.70 1016.92 1017.10 1017.27 1017.41 1017.54 1017.66 1017.79 1017.93 1018.09 1018.26 1018.44 1018.63 1018.81 1018.97 1019.10 1019.20 1019.26 1019.29 1019.31 1019.34 1019.40 1019.51 1019.69 1019.93 1020.23 1020.57 1020.91 1021.23 1021.50 1021.71 1021.83 1021.88 1021.86
1013.48 1013.91 1014.38 1014.85 1015.31 1015.74 1016.14 1016.48 1016.79 1017.05 1017.28 1017.48 1017.66 1017.83 1017.98 1018.14 1018.29 1018.45 1018.61 1018.78 1018.95 1019.11 1019.27 1019.40 1019.51 1019.58 1019.63 1019.66 1019.70 1019.75 1019.84 1019.98 1020.18 1020.45 1020.75 1021.08 1021.41 1021.70 1021.93 1022.09 1022.16 1022.14 1022.06
1013.61 1014.08 1014.59 1015.12 1015.63 1016.10 1016.53 1016.91 1017.23 1017.52 1017.77 1018.00 1018.21 1018.41 1018.59 1018.78 1018.96 1019.13 1019.30 1019.46 1019.62 1019.76 1019.88 1019.98 1020.06 1020.11 1020.14 1020.16 1020.20 1020.26 1020.36 1020.51 1020.72 1020.98 1021.28 1021.59 1021.89 1022.15 1022.34 1022.45 1022.47 1022.41 1022.27
Thickness
5753 5751 5750 5748 5747 5745 5745 5744 5743 5743 5742 5740 5739 5737 5735 5733 5730 5728 5726 5725 5723 5721 5720 5718 5717 5715 5714 5713 5712 5711 5710 5709 5708 5707 5706 5705 5704 5704 5703 5702 5701 5701 5700
5753 5751 5750 5748 5747 5746 5745 5744 5743 5742 5741 5740 5739 5737 5735 5733 5730 5728 5727 5725 5723 5721 5720 5718 5717 5715 5714 5712 5711 5710 5709 5708 5707 5706 5705 5704 5703 5703 5702 5701 5700 5700 5699
5754 5752 5750 5749 5748 5746 5745 5744 5743 5742 5741 5740 5739 5737 5735 5733 5731 5729 5727 5725 5723 5722 5720 5718 5717 5716 5714 5713 5711 5710 5709 5708 5707 5706 5705 5704 5703 5702 5701 5700 5699 5699 5698
5754 5752 5751 5749 5748 5747 5745 5744 5742 5740 5739 5738 5737 5736 5735 5733 5731 5730 5728 5726 5724 5723 5721 5719 5718 5716 5715 5713 5712 5710 5709 5708 5707 5705 5704 5703 5702 5701 5701 5700 5699 5698 5697
5754 5753 5751 5750 5749 5747 5745 5744 5742 5740 5737 5737 5736 5735 5734 5733 5732 5730 5729 5727 5726 5724 5723 5721 5719 5717 5716 5715 5713 5712 5710 5709 5707 5706 5705 5704 5702 5701 5700 5700 5699 5698 5697
5754 5752 5751 5750 5749 5746 5744 5743 5741 5740 5738 5737 5736 5734 5733 5733 5732 5731 5731 5729 5727 5726 5724 5722 5721 5719 5717 5716 5715 5714 5712 5710 5709 5707 5706 5704 5703 5702 5701 5700 5699 5698 5697
5753 5752 5751 5749 5748 5746 5744 5743 5740 5738 5736 5736 5731 5728 5730 5732 5732 5732 5732 5731 5730 5728 5726 5724 5722 5721 5719 5718 5717 5715 5714 5712 5710 5709 5707 5706 5704 5703 5701 5700 5699 5698 5697
5753 5751 5750 5749 5747 5745 5743 5742 5740 5736 5735 5735 5729 5722 5719 5722 5729 5734 5733 5732 5732 5730 5728 5726 5725 5723 5722 5720 5719 5718 5716 5714 5712 5710 5709 5707 5705 5704 5702 5701 5700 5699 5697
5753 5751 5750 5749 5747 5745 5742 5741 5740 5737 5732 5733 5733 5726 5717 5714 5721 5728 5732 5733 5733 5732 5730 5729 5727 5726 5724 5723 5721 5720 5718 5716 5714 5712 5710 5709 5707 5705 5704 5702 5700 5699 5698
5752 5751 5750 5748 5747 5745 5743 5742 5741 5738 5735 5730 5731 5732 5730 5728 5720 5719 5726 5731 5733 5733 5732 5732 5730 5728 5726 5724 5723 5722 5720 5718 5716 5714 5712 5711 5708 5707 5705 5703 5702 5700 5699
5751 5751 5749 5748 5746 5745 5743 5741 5740 5738 5736 5733 5730 5730 5729 5728 5727 5721 5718 5724 5729 5733 5734 5733 5733 5731 5729 5726 5725 5723 5722 5720 5718 5716 5714 5712 5710 5708 5706 5704 5703 5701 5700
5750 5750 5749 5747 5746 5745 5743 5741 5739 5738 5736 5734 5733 5731 5729 5726 5724 5722 5719 5719 5722 5729 5733 5733 5733 5732 5730 5728 5726 5725 5723 5721 5719 5717 5715 5713 5711 5709 5707 5705 5703 5702 5700
5747 5748 5748 5747 5746 5745 5743 5741 5738 5737 5736 5734 5732 5731 5731 5730 5730 5726 5722 5719 5720 5724 5729 5731 5733 5732 5730 5728 5727 5725 5723 5721 5719 5717 5715 5713 5711 5709 5707 5705 5703 5702 5700
5748 5748 5747 5746 5745 5744 5743 5740 5738 5736 5735 5734 5733 5732 5730 5731 5731 5729 5725 5720 5715 5717 5721 5725 5730 5730 5730 5728 5726 5724 5722 5720 5718 5716 5714 5712 5710 5709 5706 5704 5702 5701 5699
5747 5747 5746 5744 5743 5742 5741 5739 5736 5735 5734 5733 5732 5731 5729 5729 5729 5729 5727 5724 5716 5710 5712 5719 5723 5727 5727 5726 5725 5722 5721 5719 5717 5715 5713 5711 5709 5707 5705 5703 5701 5699 5697
5746 5744 5743 5742 5741 5740 5738 5736 5735 5733 5731 5730 5730 5728 5727 5726 5726 5726 5725 5723 5720 5715 5710 5715 5719 5722 5723 5722 5721 5719 5718 5716 5715 5713 5711 5709 5707 5705 5702 5700 5698 5696 5694
5743 5741 5740 5739 5737 5736 5735 5733 5731 5730 5728 5727 5726 5725 5723 5723 5723 5722 5721 5720 5717 5715 5710 5711 5714 5717 5716 5715 5715 5714 5713 5711 5710 5708 5707 5705 5703 5701 5698 5696 5694 5692 5690
5740 5739 5738 5736 5734 5733 5731 5730 5728 5727 5724 5722 5722 5720 5719 5720 5719 5718 5716 5715 5713 5712 5709 5705 5706 5707 5708 5708 5708 5707 5706 5705 5704 5703 5702 5700 5698 5696 5693 5691 5689 5686 5684
5736 5735 5734 5732 5730 5729 5727 5725 5723 5722 5720 5718 5717 5716 5715 5714 5712 5712 5711 5709 5709 5708 5706 5702 5699 5699 5699 5700 5698 5698 5698 5697 5696 5696 5695 5693 5691 5689 5687 5685 5682 5680 5677
5732 5730 5729 5728 5726 5724 5722 5720 5718 5716 5714 5713 5712 5711 5710 5709 5707 5706 5705 5704 5703 5700 5698 5695 5692 5689 5689 5689 5688 5686 5685 5685 5685 5686 5685 5684 5683 5681 5679 5676 5674 5672 5670
5726 5725 5723 5722 5721 5719 5717 5715 5712 5711 5708 5707 5706 5705 5705 5704 5704 5702 5700 5698 5696 5693 5690 5687 5683 5680 5678 5677 5676 5676 5674 5673 5674 5674 5673 5673 5672 5670 5668 5667 5665 5663 5661
5719 5717 5715 5714 5713 5711 5710 5709 5707 5705 5703 5701 5699 5698 5697 5696 5696 5695 5694 5693 5690 5686 5682 5678 5674 5671 5669 5668 5668 5667 5664 5662 5660 5662 5661 5660 5660 5657 5656 5655 5654 5653 5651
5711 5709 5707 5705 5704 5702 5702 5701 5700 5698 5696 5693 5691 5689 5688 5687 5686 5686 5685 5683 5681 5679 5676 5672 5666 5664 5662 5660 5659 5657 5655 5652 5649 5649 5649 5646 5646 5644 5643 5642 5642 5640 5638
5703 5701 5699 5698 5696 5694 5694 5693 5692 5690 5687 5685 5683 5681 5679 5678 5677 5676 5674 5671 5668 5665 5664 5662 5658 5655 5653 5652 5650 5648 5646 5642 5640 5638 5638 5633 5631 5630 5630 5629 5628 5626 5625
5695 5693 5692 5690 5688 5686 5685 5684 5683 5680 5677 5674 5672 5671 5670 5668 5667 5666 5663 5659 5656 5653 5651 5650 5647 5644 5643 5641 5640 5638 5634 5630 5625 5623 5623 5620 5617 5616 5615 5613 5612 5611 5610
5688 5686 5683 5681 5679 5677 5676 5675 5674 5671 5666 5663 5660 5659 5659 5658 5656 5655 5653 5649 5644 5640 5639 5637 5634 5632 5630 5628 5627 5625 5622 5617 5612 5609 5608 5606 5603 5601 5598 5597 5596 5596 5594